User: anonymous   Login
Location: San Vito
(41.8833°N, 12.9833°E)
Time: 18:06:38
(UTC+00:00)
Language:

Gbstr 26 Del rocket - Orbit

View from above orbital plane
View from above orbital plane
View from above satellite
View from above satellite

Ground track
Ground track

The orbit data is extracted from the following two-line orbital elements,

1 25876U 99041E   20025.11667198 -.00000152  00000-0  13314-4 0  9994
2 25876  51.7670 160.1216 0530453 283.2223  71.0073 14.04384172 48368
Epoch (UTC): 25 January 2020 02:48:00
Eccentricity: 0.0530453
inclination: 51.7670°
perigee height: 494 km
apogee height: 1263 km
right ascension of ascending node: 160.1216°
argument of perigee: 283.2223°
revolutions per day: 14.04384172
mean anomaly at epoch: 71.0073°
orbit number at epoch: 4836

The dashed part of the orbit path shows where the satellite is in the earth's shadow,  

DLR